CZ-6A DEB, 61405

Orbit data source: Space-Track

CZ-6A DEB, 61405 is space debris in LEO originally from a launch on Tue, 06 Aug 2024 UTC launched from the Taiyaun Space Center, China (TSC). Debris objects in space refer to the collection of defunct objects orbiting the Earth. Examples of debris include non-operational satellites, rocket bodies, and fragments generated from explosions, collisions, or faulty payload assembly.

Loading next visibility...
Identifier
61405, 2024-140XW
Orbit
LEO
Country
Flag of CNCN / PRC
Related business
Manufacturer
SAST
Mission
Spacecraft
Bus & Motor
Unknown
Mass
Unknown
Launch date (UTC)
2024-08-06 (1 year ago)
Launch vehicle
Unknown
Launch site
Taiyaun Space Center, China (TSC)
Object type
Payload
Rocket body
Debris
Shape & HBR
Unknown shape, 0.1 m
Radar Cross Section
Small (<0.1 m²)

Expand to show TLE details & history
Last TLE update: 2 days ago

TLE from 2 days ago
0 CZ-6A DEB
1 61405U 24140XW  25311.93769584  .00012059  00000-0  30075-2 0  9994
2 61405  88.8843 291.0454 0046329 293.7282  65.9069 14.50909221 61284
Epoch: 2025-11-07T22:30Z
TLE epoch observation values (Epoch: 2025-11-07T22:30:16.920Z)
Latitude
0.00002°
Longitude
-93.89959°
Altitude
712.472 km
Speed
7.506 km/s
True Right ascension
19h 24m 10s
True Declination
0° 00' 00"
Sunlit
Object was in daylight at epoch
Visualization orbit readout
Latitude
Unknown
Longitude
Unknown
Altitude
Unknown
Speed
Unknown
Apparent Right ascension
Unknown
Apparent Declination
Unknown
Sunlit
N/A
Visualization observer readout
Local Sidereal Time
17:04:08
Azimuth
Unknown
Elevation
Unknown
Doppler factor
Unknown
Orbital elements
Apogee altitude
752.471 km
Perigee altitude
686.705 km
Semi-major axis
7,097.725 km
Eccentricity
0.00463
Inclination
88.8843°
RAAN
291.0454°
Arg. of periapsis
293.7282°
True anomaly
66.39268°
Mean anomaly
65.9069°
Eccentric anomaly
66.14968°
Mean motion
3.62965 °/min
Orbital period
99.18 mins
BSTAR
0.0030075
Loading maneuver chart data...
Computing Atmospheric mass density...
Loading historical data...
Loading historical data...
Loading historical data...
Loading historical data...
Loading historical data...
Loading historical data...
Loading historical data...

Documentation

Showing up to 5 results
|